Погода в Зеленодольске

Россия / Оренбургская область     52°22′45″N   59°53′32″E
темп.,
°C
ветер,
м/с
пор.,
м/с
влажн.,
%
обл.,
%
осадки,
мм/ч
давл.,
гПа
погр.,
м
11 мая, вт
вт1123:00+12юв23713 0.0 102335
02:00+11св11720 0.0 102310
05:00+10ссв33795 0.0 102527
08:00+13св45540 0.0 1026332
11:00+17в55310 0.0 10261532
14:00+20вюв34245 0.0 10271934
17:00+20вюв33233 0.0 10271999
20:00+17вюв223345 0.0 102711
12 мая, ср
ср1223:00+14ююв2239100 0.0 102814
02:00+12ю224645 0.0 102910
05:00+11юз115041 0.0 103010
08:00+15юз114163 0.0 1030186
11:00+19ю222971 0.0 10301389
14:00+22ююз112431 0.0 10291832
17:00+22зюз21221 0.0 10281912
20:00+19зюз22320 0.0 102811
13 мая, чт
чт1323:00+16зюз23341 0.0 102815
02:00+14з33374 0.0 102828
05:00+13зсз33420 0.0 102925
08:00+18сз23375 0.0 1029159
11:00+23сз222592 0.0 10281236
14:00+25сз22255 0.0 10272135
17:00+26сз232654 0.0 10262270
20:00+22ссз224048 0.0 102621
14 мая, пт
пт1423:00+19сз22405 0.0 102611
02:00+17с22475 0.0 102711
05:00+15ссз225010 0.0 102816
08:00+20с22425 0.0 1028159
11:00+26сз11314 0.0 10271149
14:00+27з32262 0.0 10262582
17:00+28з22255 0.0 10262583
20:00+24з11342 0.0 102511
15 мая, сб
сб1523:00+20сз33370 0.0 102525
02:00+17сз22490 0.0 102523
05:00+16сз23600 0.0 102617
08:00+21сз33480 0.0 1026171
11:00+26з33300 0.0 10241212
14:00+28зюз34253 0.0 10232600
17:00+28зюз33215 0.0 10222859
20:00+24з33314 0.0 102120